"TOA5","AWS1","CR1000","7964","CR1000.Std.14","CPU:AWS1_114.CR1","64363","TBL110"
"TIMESTAMP","RECORD","Wind_spd_WVc(1)","Wind_spd_WVc(2)","Air_Temp_Avg","Humidity_Avg","SW_upper_Wm2_Avg","Rain_Tot","Press_Avg","Issui_Tot","Depth_cm","SR50A_Raw","Quality","Ground_Temp_Avg(1)","Ground_Temp_Avg(2)","SW_lower_Wm2_Avg","Albedo_Avg","SWC_per(1)","SWC_per(2)","Period(1)","Period(2)"
"TS","RN","","","","","","","","","","","","","","","","","","",""
"","","WVc","WVc","Avg","Avg","Avg","Tot","Avg","Tot","Smp","Smp","Smp","Avg","Avg","Avg","Avg","Smp","Smp","Smp","Smp"
"2017-07-15 00:00:00",296845,0,0,17.54,100,0,0,868.8391,0,-4.222,3.123,197,21.01,20.14,0.6517798,0,49.03,57.04,33.05,34.99
"2017-07-15 00:10:00",296846,0.009,335.2,17.61,100,0.05109127,0,868.8328,0,-4.167,3.122,199,21,20.13,0.6593473,0.627,49.03,56.98,33.05,34.98
"2017-07-15 00:20:00",296847,0.063,82.9,17.75,100,0.03930123,0,868.8312,0,-3.346,3.114,214,20.98,20.14,0.515361,0.482,49.08,56.98,33.07,34.98
"2017-07-15 00:30:00",296848,0.077,50.64,17.72,100,0,0,868.8309,0,-3.496,3.115,213,20.96,20.14,0.4547357,0,49.03,56.98,33.05,34.98
"2017-07-15 00:40:00",296849,0.115,196,17.75,100,0,0,868.8308,0,-4.48,3.125,198,20.98,20.15,0.4547358,0,49.03,56.98,33.05,34.98
"2017-07-15 00:50:00",296850,0.194,78.42,17.7,100,0,0,868.8308,0,-4.323,3.124,198,21,20.13,0.4319862,0,49.03,56.98,33.05,34.98
"2017-07-15 01:00:00",296851,0.148,31.59,17.63,100,0,0,868.8308,0,-4.319,3.124,197,20.96,20.12,0.4547071,0,49.08,56.98,33.07,34.98
"2017-07-15 01:10:00",296852,0.208,12.53,17.64,100,0,0,868.836,0,-4.11,3.122,198,20.83,20.12,0.4546984,0,49.03,56.98,33.05,34.98
"2017-07-15 01:20:00",296853,0,0,17.68,100,0,0,868.8325,0,-4.425,3.125,192,20.85,20.12,0.4319684,0,49.03,56.98,33.05,34.98
"2017-07-15 01:30:00",296854,0.046,13.12,17.68,100,0,0,868.8312,0,-4.414,3.124,197,20.89,20.12,0.4433421,0,49.03,56.98,33.05,34.98
"2017-07-15 01:40:00",296855,0.008,30.48,17.72,100,0,0,868.8434,0,-4.282,3.123,197,20.88,20.11,0.2728155,0,49.08,56.98,33.07,34.98
"2017-07-15 01:50:00",296856,0,0,17.7,100,0,0,868.8497,0,-1.987,3.101,244,20.81,20.11,0.4205807,0,49.03,56.98,33.05,34.98
"2017-07-15 02:00:00",296857,0,0,17.66,100,0,0,868.8308,0,-2.228,3.104,229,20.76,20.11,0.3144933,0,49.03,56.93,33.05,34.97
"2017-07-15 02:10:00",296858,0,0,17.42,100,0,0,868.835,0,-1.795,3.101,256,20.72,20.1,0.428164,0,49.03,56.93,33.05,34.97
"2017-07-15 02:20:00",296859,0.06,304.6,17.31,100,0,0,868.8308,0,-2.216,3.106,229,20.76,20.09,0.4546834,0,49.03,56.93,33.05,34.97
"2017-07-15 02:30:00",296860,0,0,17.11,100,0,0,868.8308,0,-2.479,3.109,226,20.8,20.08,0.4092164,0,49.08,56.93,33.07,34.97
"2017-07-15 02:40:00",296861,0,0,17,100,0,0,868.8265,0,-3.238,3.117,217,20.78,20.07,0.4319652,0,49.08,56.93,33.07,34.97
"2017-07-15 02:50:00",296862,0.037,207.9,16.77,100,0,0,868.8308,0,-3.921,3.125,202,20.73,20.09,0.2273583,0,49.03,56.93,33.05,34.97
"2017-07-15 03:00:00",296863,0.069,165.8,16.51,100,0,0,868.7995,0,-3.651,3.124,205,20.67,20.11,0.1629425,0,49.08,56.93,33.07,34.97
"2017-07-15 03:10:00",296864,0.193,166.6,16.26,100,0,0,868.5877,0,-3.299,3.122,210,20.72,20.13,0.227361,0,49.08,56.93,33.07,34.97
"2017-07-15 03:20:00",296865,0.102,176.7,16.17,100,0,0,868.569,0,-4.15,3.13,197,20.67,20.13,0.4812524,0,49.03,56.93,33.05,34.97
"2017-07-15 03:30:00",296866,0.418,191.4,16.11,100,0,0,868.4603,0,0.17,3.088,368,20.66,20.14,0.4850529,0,49.03,56.93,33.05,34.97
"2017-07-15 03:40:00",296867,0.226,295.3,16.31,100,0,0,868.6068,0,-4.02,3.128,200,20.65,20.14,0.636639,0,49.03,56.98,33.05,34.98
"2017-07-15 03:50:00",296868,0.143,126.3,16.23,100,0,0,868.816,0,-3.053,3.12,234,20.61,20.15,0.5153767,0,49.08,56.93,33.07,34.97
"2017-07-15 04:00:00",296869,0.142,171.2,15.93,100,0,0,868.8497,0,-3.271,3.124,222,20.66,20.14,0.3486377,0,49.03,56.93,33.05,34.97
"2017-07-15 04:10:00",296870,0.029,171.4,15.73,100,0,0,868.999,0,0.929,3.082,369,20.66,20.13,0.420639,0,49.03,56.93,33.05,34.97
"2017-07-15 04:20:00",296871,0.136,171.3,15.89,100,0,0,869.0048,0,1.301,3.08,360,20.64,20.12,0.6139057,0,49.03,56.93,33.05,34.97
"2017-07-15 04:30:00",296872,0.245,175.1,15.72,100,0,0,868.8429,0,1.617,3.076,360,20.56,20.1,0.4547449,0,49.03,56.87,33.05,34.95
"2017-07-15 04:40:00",296873,0.209,281.5,16.45,100,1.049386,0,868.8458,0,1.45,3.073,365,20.57,20.07,1.133073,0.911,49.03,56.93,33.05,34.97
"2017-07-15 04:50:00",296874,0.006,139.9,16.88,100,2.766919,0,868.8484,0,0.809,3.079,338,20.58,20.07,1.330129,0.498,49.08,56.87,33.07,34.95
"2017-07-15 05:00:00",296875,0,0,16.75,100,3.914562,0,868.8529,0,0.271,3.084,363,20.53,20.07,1.280865,0.331,49.08,56.87,33.07,34.95
"2017-07-15 05:10:00",296876,0,0,16.86,100,8.257525,0,868.8368,0,-0.197,3.089,372,20.49,20.06,2.034983,0.251,49.03,56.87,33.05,34.95
"2017-07-15 05:20:00",296877,0.038,137.6,16.61,100,13.28033,0,868.8322,0,0.212,3.086,362,20.47,20.06,2.455604,0.185,49.03,56.87,33.05,34.95
"2017-07-15 05:30:00",296878,0.08,181,16.47,100,19.25347,0,868.8311,0,0.058,3.088,369,20.45,20.07,3.311889,0.173,49.03,56.87,33.05,34.95
"2017-07-15 05:40:00",296879,0.051,177,16.34,100,35.08772,0,868.8324,0,-0.259,3.092,339,20.46,20.07,5.623382,0.161,49.03,56.87,33.05,34.95
"2017-07-15 05:50:00",296880,0.198,172.4,16.12,100,43.07,0,868.848,0,-0.119,3.092,321,20.4,20.05,6.695812,0.156,49.03,56.93,33.05,34.97
"2017-07-15 06:00:00",296881,0.191,183.3,16.11,100,42.78019,0,869.0297,0,-1.35,3.103,251,20.4,20.03,6.457234,0.151,49.03,56.93,33.05,34.97
"2017-07-15 06:10:00",296882,0.187,177.8,16.03,97.3,54.53621,0,869.0828,0,-0.542,3.097,273,20.4,20.04,8.965989,0.161,49.03,56.87,33.05,34.95
"2017-07-15 06:20:00",296883,0.295,174.7,15.82,92.4,77.89805,0,869.0813,0,-0.274,3.093,277,20.35,20.04,19.55021,0.254,49.03,56.87,33.05,34.95
"2017-07-15 06:30:00",296884,0.174,353.2,16.71,82.6,85.4404,0,869.1746,0,-0.498,3.091,309,20.34,20.02,20.40667,0.24,49.08,56.87,33.07,34.95
"2017-07-15 06:40:00",296885,0.015,164.3,16.81,84.2,150.8836,0,869.2832,0,-1.727,3.102,297,20.33,20.02,30.09653,0.196,49.03,56.87,33.05,34.95
"2017-07-15 06:50:00",296886,0.169,141.4,16.91,84.6,144.8336,0,869.3474,0,-2.398,3.109,239,20.32,19.99,22.38841,0.154,49.03,56.87,33.05,34.95
"2017-07-15 07:00:00",296887,0.374,143.2,16.75,88.4,132.4249,0,869.299,0,-3.792,3.123,203,20.31,20.01,19.97436,0.151,49.03,56.87,33.05,34.95
"2017-07-15 07:10:00",296888,0.275,151,17.3,85.4,148.8118,0,869.2821,0,-4.097,3.119,201,20.3,20.01,31.28546,0.214,49.03,56.87,33.05,34.95
"2017-07-15 07:20:00",296889,0.355,5.783,18.04,77.9,142.1411,0,869.3362,0,-4.132,3.118,192,20.29,19.98,36.4188,0.264,49.03,56.87,33.05,34.95
"2017-07-15 07:30:00",296890,0.626,7.111,18.66,74.44,64.97564,0,869.3361,0,1.528,3.061,282,20.28,19.96,28.86531,0.447,49.03,56.87,33.05,34.95
"2017-07-15 07:40:00",296891,0.128,17.01,18.91,74.55,61.99436,0,869.3361,0,1.909,3.056,249,20.28,19.96,30.89123,0.499,49.08,56.87,33.07,34.95
"2017-07-15 07:50:00",296892,0.286,129.3,19.29,72.69,233.3013,0,869.3361,0,3.586,3.038,225,20.26,19.92,36.94123,0.274,49.08,56.87,33.07,34.95
"2017-07-15 08:00:00",296893,0.44,136.4,19.7,63.35,434.8224,0,869.3361,0,1.745,3.054,242,20.26,19.91,40.4797,0.093,49.03,56.81,33.05,34.94
"2017-07-15 08:10:00",296894,0.204,97.7,20.26,60.39,641.3674,0,869.3361,0,2.114,3.045,219,20.24,19.89,81.41423,0.126,49.03,56.87,33.05,34.95
"2017-07-15 08:20:00",296895,0.466,27.59,20.62,64.22,634.697,0,869.3361,0,2.736,3.04,211,20.18,19.91,88.98557,0.14,49.03,56.87,33.05,34.95
"2017-07-15 08:30:00",296896,0.553,98.1,20.78,64.29,586.6102,0,869.3298,0,2.51,3.04,212,20.18,19.89,83.81242,0.141,49.08,56.87,33.07,34.95
"2017-07-15 08:40:00",296897,0.278,21.43,21.18,63.02,620.381,0,869.3361,0,2.825,3.037,211,20.17,19.88,90.90468,0.145,49.03,56.87,33.05,34.95
"2017-07-15 08:50:00",296898,0.514,27.2,21.29,61.57,774.6517,0,869.3361,0,2.928,3.034,228,20.14,19.88,115.7962,0.149,49.03,56.81,33.05,34.94
"2017-07-15 09:00:00",296899,0.319,66.88,21.39,64.74,761.0892,0,869.2814,0,2.663,3.037,225,20.08,19.83,112.5984,0.147,49.03,56.81,33.05,34.94
"2017-07-15 09:10:00",296900,0.401,66.28,21.23,67.58,682.6075,0,869.1003,0,3.655,3.027,214,20.05,19.71,98.58172,0.142,49.03,56.81,33.05,34.94
"2017-07-15 09:20:00",296901,0.503,16.27,21.66,67.64,819.7943,0,869.0834,0,2.891,3.031,223,20.05,19.71,121.1635,0.147,49.03,56.81,33.05,34.94
"2017-07-15 09:30:00",296902,0.339,325.3,21.99,67.6,770.6315,0,868.9108,0,2.717,3.032,227,20.05,19.71,112.2497,0.145,49.03,56.81,33.05,34.94
"2017-07-15 09:40:00",296903,0.156,228.1,22.48,64.94,679.8375,0,868.8308,0,2.682,3.031,232,20.07,19.71,96.55496,0.14,49.03,56.81,33.05,34.94
"2017-07-15 09:50:00",296904,0.22,179.3,22.73,63.82,794.2758,0,868.8308,0,2.751,3.029,210,20.17,19.71,115.7728,0.145,49.03,56.81,33.05,34.94
"2017-07-15 10:00:00",296905,0.268,276.8,22.51,62.46,474.7346,0,868.8245,0,2.416,3.032,203,20.14,19.73,63.77522,0.133,49.03,56.81,33.05,34.94
"2017-07-15 10:10:00",296906,0.407,114.7,22.82,64.56,564.6918,0,868.8139,0,3.41,3.024,209,20.17,19.75,80.07607,0.141,49.03,56.81,33.05,34.94
"2017-07-15 10:20:00",296907,0.339,32.83,22.54,66.47,638.2416,0,868.8223,0,3.433,3.02,211,20.17,19.75,94.58129,0.147,48.97,56.75,33.04,34.93
"2017-07-15 10:30:00",296908,0.276,6.374,23.1,65.45,758.0273,0,868.8308,0,3.919,3.016,232,20.14,19.75,116.1516,0.151,48.97,56.75,33.04,34.93
"2017-07-15 10:40:00",296909,0.427,13.56,22.97,66.66,747.5331,0,868.8308,0,4.081,3.016,222,20.12,19.73,112.3179,0.15,48.97,56.75,33.04,34.93
"2017-07-15 10:50:00",296910,0.48,340.2,22.91,68.43,709.886,0,868.8308,0,4.59,3.01,211,20.18,19.71,108.1811,0.15,48.97,56.75,33.04,34.93
"2017-07-15 11:00:00",296911,0.524,343.2,23.3,66.56,891.0104,0,868.7929,0,4.394,3.011,296,20.22,19.69,138.6008,0.155,48.92,56.75,33.03,34.93
"2017-07-15 11:10:00",296912,0.35,13.48,23.15,67.9,752.2636,0,868.5971,0,4.128,3.012,232,20.25,19.66,114.3901,0.151,48.92,56.7,33.03,34.91
"2017-07-15 11:20:00",296913,0.234,22.27,23.89,67.18,714.6321,0,868.574,0,4.059,3.012,209,20.31,19.66,106.6279,0.148,48.92,56.7,33.03,34.91
"2017-07-15 11:30:00",296914,0.36,6.952,24.07,65.42,1084.998,0,868.5676,0,3.958,3.009,306,20.35,19.65,171.5965,0.157,48.86,56.7,33.01,34.91
"2017-07-15 11:40:00",296915,0.255,271.5,23.97,65.48,648.7869,0,868.574,0,4.013,3.012,205,20.36,19.63,95.63063,0.145,48.86,56.7,33.01,34.91
"2017-07-15 11:50:00",296916,0.351,309.9,23.81,66.54,856.1568,0,868.5023,0,3.666,3.014,237,20.45,19.61,131.9865,0.152,48.86,56.64,33.01,34.9
"2017-07-15 12:00:00",296917,0.39,300.7,23.72,65.61,714.9583,0,868.4076,0,5.01,3.002,224,20.52,19.6,108.3554,0.147,48.86,56.64,33.01,34.9
"2017-07-15 12:10:00",296918,0.476,15.06,24.03,63.2,772.0184,0,868.3528,0,3.991,3.01,223,20.57,19.6,119.0231,0.153,48.86,56.64,33.01,34.9
"2017-07-15 12:20:00",296919,0.303,307.9,24.27,60.62,786.6733,0,868.3487,0,4.386,3.006,221,20.65,19.59,121.2089,0.154,48.86,56.64,33.01,34.9
"2017-07-15 12:30:00",296920,0.224,269.5,23.75,61.58,646.5867,0,868.3255,0,5.393,2.997,314,20.69,19.6,98.41122,0.147,48.81,56.64,33,34.9
"2017-07-15 12:40:00",296921,0.443,135.2,24.69,58.61,1130.519,0,868.3192,0,4.388,3.004,232,20.77,19.6,182.4271,0.161,48.81,56.58,33,34.88
"2017-07-15 12:50:00",296922,0.418,261.5,24.89,53.83,1032.995,0,868.1213,0,4.482,3.002,320,20.82,19.6,162.9933,0.158,48.75,56.58,32.99,34.88
"2017-07-15 13:00:00",296923,0.485,321.8,24.56,52.48,828.1277,0,868.075,0,3.737,3.012,222,20.9,19.6,127.1678,0.152,48.75,56.58,32.99,34.88
"2017-07-15 13:10:00",296924,0.544,333.8,24.15,53.58,788.0446,0,868.1002,0,3.228,3.016,228,20.98,19.58,122.5462,0.155,48.7,56.58,32.97,34.88
"2017-07-15 13:20:00",296925,0.291,278.1,24.14,57.25,552.0327,0,868.1928,0,4.384,3.008,230,21.04,19.59,81.94747,0.146,48.75,56.58,32.99,34.88
"2017-07-15 13:30:00",296926,0.237,265.2,24.54,54.42,929.4002,0,868.3171,0,4.309,3.003,236,21.13,19.59,149.0526,0.16,48.75,56.52,32.99,34.87
"2017-07-15 13:40:00",296927,0.294,280.6,24.37,52.46,658.8843,0,868.2139,0,2.74,3.022,242,21.21,19.6,98.92641,0.15,48.65,56.52,32.96,34.87
"2017-07-15 13:50:00",296928,0.311,293,24.29,52.81,593.0627,0,868.2139,0,3.574,3.014,236,21.28,19.6,88.10338,0.148,48.65,56.52,32.96,34.87
"2017-07-15 14:00:00",296929,0.299,39.38,24.39,52.16,670.1486,0,868.1697,0,4.133,3.006,232,21.38,19.6,102.6389,0.152,48.65,56.52,32.96,34.87
"2017-07-15 14:10:00",296930,0.22,249.7,24.41,53.51,483.8615,0,868.0729,0,3.239,3.017,222,21.4,19.58,69.41592,0.142,48.65,56.52,32.96,34.87
"2017-07-15 14:20:00",296931,0.299,350.8,24.08,54.48,643.7775,0,868.0729,0,3.853,3.01,299,21.5,19.6,98.99839,0.153,48.65,56.52,32.96,34.87
"2017-07-15 14:30:00",296932,0.504,16.06,24.53,50.49,589.2241,0,868.0433,0,2.81,3.02,344,21.54,19.61,87.37603,0.145,48.59,56.52,32.95,34.87
"2017-07-15 14:40:00",296933,0.083,287.6,24.02,52.68,314.0289,0,868.0433,0,3.492,3.017,217,21.61,19.6,41.31089,0.131,48.59,56.46,32.95,34.86
"2017-07-15 14:50:00",296934,0.096,303.3,23.65,53.21,340.7025,0,868.0729,0,3.492,3.017,334,21.69,19.62,45.96286,0.135,48.59,56.46,32.95,34.86
"2017-07-15 15:00:00",296935,0.146,265.3,23.79,57.82,510.9005,0,868.0729,0,3.863,3.013,235,21.72,19.66,65.80573,0.13,48.54,56.46,32.93,34.86
"2017-07-15 15:10:00",296936,0.174,245.8,24.23,53.2,585.1537,0,868.1676,0,3.332,3.015,361,21.75,19.68,66.48382,0.113,48.59,56.46,32.95,34.86
"2017-07-15 15:20:00",296937,0.163,187.5,24.11,54.61,318.2879,0,868.1992,0,3.295,3.018,230,21.85,19.67,36.49223,0.115,48.59,56.46,32.95,34.86
"2017-07-15 15:30:00",296938,0.165,151.9,24.03,55.46,377.4971,0,868.2119,0,3.783,3.012,249,21.88,19.67,45.32265,0.121,48.48,56.41,32.92,34.84
"2017-07-15 15:40:00",296939,0.201,206.9,24.15,57.14,201.5117,0,868.1044,0,3.632,3.013,323,21.91,19.63,33.34798,0.17,48.54,56.41,32.93,34.84
"2017-07-15 15:50:00",296940,0.454,132.9,23.92,54.75,133.816,0,868.2939,0,3.526,3.016,249,21.92,19.7,21.61955,0.161,48.48,56.41,32.92,34.84
"2017-07-15 16:00:00",296941,0.217,147.6,23.7,56.61,121.5616,0,868.3255,0,3.225,3.02,226,22,19.77,17.55476,0.143,48.48,56.41,32.92,34.84
"2017-07-15 16:10:00",296942,0.17,169.6,23.53,57.74,142.3497,0,868.3255,0,3.48,3.018,230,22,19.79,20.85433,0.146,48.43,56.35,32.9,34.83
"2017-07-15 16:20:00",296943,0.365,169.3,23.52,58.41,135.8021,0,868.3255,0,3.186,3.021,229,22.03,19.8,18.99077,0.139,48.48,56.35,32.92,34.83
"2017-07-15 16:30:00",296944,0.172,197,23.33,59.69,133.7984,0,868.3255,0,-2.616,3.078,215,22.12,19.81,18.13137,0.135,48.48,56.35,32.92,34.83
"2017-07-15 16:40:00",296945,0.127,164.1,23.14,61.8,135.6186,0,868.3255,0,3.137,3.023,322,22.12,19.81,19.23396,0.142,48.43,56.35,32.9,34.83
"2017-07-15 16:50:00",296946,0.258,206.5,23.23,63,145.2045,0,868.3298,0,3.277,3.021,235,22.11,19.81,20.86661,0.144,48.43,56.35,32.9,34.83
"2017-07-15 17:00:00",296947,0.178,196.4,23.39,63.17,151.408,0,868.3802,0,3.118,3.022,252,22.2,19.83,22.32185,0.147,48.38,56.29,32.89,34.82
"2017-07-15 17:10:00",296948,0.025,282.4,23.33,66.13,90.68037,0,868.3255,0,3.699,3.018,222,22.26,19.92,10.896,0.116,48.38,56.29,32.89,34.82
"2017-07-15 17:20:00",296949,0.004,37.97,22.76,70.5,41.68876,0,868.3339,0,2.882,3.029,212,22.25,19.96,2.568609,0.052,48.38,56.29,32.89,34.82
"2017-07-15 17:30:00",296950,0,0,22.25,73.51,41.21684,0,868.5108,0,2.754,3.032,225,22.28,19.97,3.17473,0.073,48.38,56.29,32.89,34.82
"2017-07-15 17:40:00",296951,0,0,21.99,74.65,49.80601,0,868.5234,0,2.931,3.031,221,22.28,19.97,5.247011,0.105,48.38,56.29,32.89,34.82
"2017-07-15 17:50:00",296952,0.065,1.571,21.84,75.18,33.89253,0,868.5676,0,3.426,3.028,232,22.28,19.98,3.261824,0.095,48.32,56.29,32.88,34.82
"2017-07-15 18:00:00",296953,0.079,21.68,21.65,75.97,21.26136,0,868.5887,0,3.417,3.028,217,22.3,19.99,1.981425,0.093,48.32,56.29,32.88,34.82
"2017-07-15 18:10:00",296954,0.169,271,21.17,80.1,5.945224,0,868.6497,0,3.343,3.035,310,22.31,20,1.151769,0.24,48.32,56.23,32.88,34.8
"2017-07-15 18:20:00",296955,0.091,169.7,20.02,98.1,3.296752,0.5,868.9403,0,2.965,3.042,245,22.31,20,0.6061878,0.19,48.32,56.23,32.88,34.8
"2017-07-15 18:30:00",296956,0,0,19.66,100,2.051188,0,869.1866,0,3.08,3.042,234,22.33,20.01,0.7350227,0.395,48.32,56.23,32.88,34.8
"2017-07-15 18:40:00",296957,0.113,34.28,19.56,100,2.837131,1,869.3129,0,0.377,3.069,203,22.28,20.05,1.113915,0.398,48.32,56.23,32.88,34.8
"2017-07-15 18:50:00",296958,0.177,176.7,19.41,100,2.290923,2,869.3361,0,-3.198,3.104,210,22.25,20.05,0.894163,0.393,48.38,56.23,32.89,34.8
"2017-07-15 19:00:00",296959,0.082,215.1,19.41,100,1.029564,1.5,869.3214,0,-1.293,3.086,215,22.25,20.1,0.7615753,0.844,48.38,56.23,32.89,34.8
"2017-07-15 19:10:00",296960,0.197,345,19.13,100,0,0.5,869.2266,0,5.983,3.017,368,22.28,20.11,0.6971832,0,48.65,56.23,32.96,34.8
"2017-07-15 19:20:00",296961,0.003,204.6,19.15,100,0.07859599,0,869.1719,0,5.884,3.017,381,22.29,20.12,0.689617,0.98,48.86,56.23,33.01,34.8
"2017-07-15 19:30:00",296962,0,0,19.28,100,0.007860059,0.5,869.334,0,5.638,3.018,342,22.3,20.17,0.7085946,0.129,49.03,56.23,33.05,34.8
"2017-07-15 19:40:00",296963,0.016,55.57,19.29,100,0,0,869.3361,0,5.527,3.02,332,22.29,20.22,0.6820686,0,49.13,56.29,33.08,34.82
"2017-07-15 19:50:00",296964,0,0,19.33,100,0,0,869.4393,0,4.964,3.025,273,22.22,20.25,0.6972085,0,49.24,56.29,33.11,34.82
"2017-07-15 20:00:00",296965,0,0,19.42,100,0,0,869.5889,0,4.87,3.025,272,22.21,20.25,0.9018363,0,49.3,56.29,33.12,34.82
"2017-07-15 20:10:00",296966,0,0,19.46,100,0,0,869.6288,0,4.914,3.025,256,22.19,20.22,0.8525774,0,49.35,56.35,33.14,34.83
"2017-07-15 20:20:00",296967,0,0,19.45,100,0,0,869.8204,0,4.956,3.025,247,22.15,20.22,0.9473395,0,49.35,56.41,33.14,34.84
"2017-07-15 20:30:00",296968,0.046,122.3,19.31,100,0,0,869.8562,0,5.26,3.023,258,22.14,20.24,0.8563932,0,49.41,56.41,33.15,34.84
"2017-07-15 20:40:00",296969,0,0,19.08,100,0,0,869.8415,0,4.583,3.03,242,22.12,20.28,0.7351189,0,49.41,56.46,33.15,34.86
"2017-07-15 20:50:00",296970,0.039,124.1,19.12,100,0,0,869.8415,0,3.523,3.04,268,22.05,20.3,0.9094342,0,49.35,56.52,33.14,34.87
"2017-07-15 21:00:00",296971,0,0,19.02,100,0,0,869.8418,0,1.742,3.059,250,22.05,20.29,0.8260881,0,49.35,56.58,33.14,34.88
"2017-07-15 21:10:00",296972,0,0,18.93,100,0,0,869.851,0,1.279,3.063,379,22,20.27,0.8677838,0,49.41,56.52,33.15,34.87
"2017-07-15 21:20:00",296973,0,0,18.85,100,0,0,869.8428,0,0.888,3.067,354,22.04,20.27,0.9019017,0,49.35,56.58,33.14,34.88
"2017-07-15 21:30:00",296974,0,0,18.83,100,0,0,869.8354,0,0.008,3.076,334,21.97,20.31,0.7995791,0,49.35,56.64,33.14,34.9
"2017-07-15 21:40:00",296975,0,0,18.75,100,0,0,869.8204,0,-0.353,3.08,293,21.96,20.31,0.6555642,0,49.41,56.64,33.15,34.9
"2017-07-15 21:50:00",296976,0,0,18.69,100,0,0,869.6815,0,-1.72,3.093,264,21.99,20.31,0.6820745,0,49.35,56.64,33.14,34.9
"2017-07-15 22:00:00",296977,0,0,18.58,100,0,0,869.732,0,-2.064,3.097,270,21.9,20.33,0.6820821,0,49.35,56.7,33.14,34.91
"2017-07-15 22:10:00",296978,0,0,18.59,100,0,0,869.7951,0,-2.164,3.098,276,21.88,20.35,0.9549063,0,49.35,56.7,33.14,34.91
"2017-07-15 22:20:00",296979,0,0,18.6,100,0,0,869.6688,0,-2.038,3.097,283,21.9,20.38,0.9814163,0,49.35,56.7,33.14,34.91
"2017-07-15 22:30:00",296980,0,0,18.59,100,0,0,869.671,0,-0.714,3.083,320,21.83,20.39,1.117863,0,49.35,56.75,33.14,34.93
"2017-07-15 22:40:00",296981,0,0,18.53,100,0,0,869.7511,0,-2.696,3.104,258,21.79,20.4,0.5873601,0,49.35,56.75,33.14,34.93
"2017-07-15 22:50:00",296982,0,0,18.29,100,0,0,869.6705,0,-1.52,3.094,270,21.79,20.4,0.4282096,0,49.35,56.75,33.14,34.93
"2017-07-15 23:00:00",296983,0,0,18.11,100,0,0,869.5855,0,-1.424,3.094,286,21.78,20.4,0.591152,0,49.35,56.75,33.14,34.93
"2017-07-15 23:10:00",296984,0,0,18,100,0,0,869.4058,0,-4.364,3.122,209,21.71,20.4,0.8791577,0,49.3,56.75,33.12,34.93
"2017-07-15 23:20:00",296985,0,124.9,17.88,100,0,0,869.3361,0,-38.48,3.454,294,21.7,20.4,0.85263,0,49.35,56.81,33.14,34.94
"2017-07-15 23:30:00",296986,0.022,125.1,17.83,100,0,0,869.3361,0,-4.113,3.121,208,21.7,20.4,0.9700906,0,49.3,56.81,33.12,34.94
"2017-07-15 23:40:00",296987,0,0,17.78,100,0,0,869.3361,0,-38.27,3.452,253,21.64,20.38,0.9662842,0,49.35,56.81,33.14,34.94
"2017-07-15 23:50:00",296988,0.166,175.1,17.78,100,0,0,869.3444,0,-39.52,3.464,346,21.65,20.4,1.04208,0,49.35,56.81,33.14,34.94
